SL-16 DEB, 43370

Orbit data source: Space-Track

SL-16 DEB, 43370 is space debris in SSO originally from a launch on Mon, 10 Dec 2001 UTC launched from the Tyuratam Missile And Space Complex (TTMTR). Debris objects in space refer to the collection of defunct objects orbiting the Earth. Examples of debris include non-operational satellites, rocket bodies, and fragments generated from explosions, collisions, or faulty payload assembly.

Loading next visibility...
SL-16 DEB details
Identifier
43370, 2001-056P
Orbit
SSO
Last TLE update17 hours ago
Origin
Flag of CISKVR (CIS)
ManufacturerUnknown
MissionSpacecraft
Bus & MotorUnknown
MassUnknown
Launch date (UTC)
2001-12-10 (23 years ago)
Launch vehicleUnknown
Launch site
Tyuratam Missile And Space Complex (TTMTR)
Object type
Payload
Rocket body
Debris
Shape & HBRUnknown
Radar Cross SectionSmall (<0.1 m²)

Expand to show TLE details & history

TLE from 17 hours ago
0 SL-16 DEB
1 43370U 01056P   24361.00252249  .00002189  00000-0  28217-2 0  9991
2 43370  99.4096 256.7639 0129731 147.9116 213.0005 13.60142188549188
Epoch: 2024-12-26T00:03Z
Definitive object data (Epoch: 2024-12-26T00:03:37.943Z)
Latitude-0.00005°
Longitude160.86764°
Altitude1,119.023 km
Speed7.253 km/s
True Right ascension17h 07m 03s
True Declination0° 00' 00"
Sunlit
Object was in daylight at TLE epoch
Visualization TLE readout
Latitude6.12162°
Longitude-17.44907°
Altitude951.867 km
Speed7.419 km/s
Apparent Right ascension04h 48m 07s
Apparent Declination-15° 15' 34"
Sunlit
Object is in full shadow
Visualization observer readout
Local Sidereal Time16:09:50
Azimuth338.566° N
Elevation-63.965°
Doppler factor1
Orbital elements
Apogee altitude1,128.586 km
Perigee altitude936.309 km
Semi-major axis7,410.585 km
Eccentricity0.0129731
Inclination99.4096°
RAAN256.7639°
Arg. of periapsis147.9116°
True anomaly212.20172°
Mean anomaly213.0005°
Eccentric anomaly212.60003°
Mean motion3.40224 °/min
BSTAR0.0028217
Orbital period105.81 mins
Loading maneuver chart data...
Loading historical data...
Loading historical data...
Loading historical data...
Loading historical data...
Loading historical data...
Loading historical data...
Loading historical data...

SL-16 DEB Visibility forecast

Observer location: undefined°, undefined

Span
Click to sort rows by Start time (UTC) header in descending order
Start Az.
Max El. time (UTC)
Max El. Az.
Max El.
End time (UTC)
End Az.
11 mins2024-12-26 17:48:36.885Z189.199° SSW2024-12-26 17:54:36.885Z263.38° W35.905°2024-12-26 17:59:36.885Z329.305° NNW
6 mins2024-12-27 04:57:36.885Z63.793° ENE2024-12-27 04:59:36.885Z88.416° E18.623°2024-12-27 05:03:36.885Z134.593° SE
9 mins2024-12-27 06:40:36.885Z1.167° NNE2024-12-27 06:44:36.885Z295.444° NW39.784°2024-12-27 06:49:36.885Z215.061° SW
|